"Time","Temp","Dewpoint","Humidity","Pressure","Direction","Speed","Gust","Precip","PrecipRate"
"00:04:57","53.1","51.8","95.2","29.61","54","2.8","12","0.01","0.08"
"00:09:58","52.9","51.5","95","29.61","64","2.4","6","0.01","0.09"
"00:14:58","52.8","51.4","95","29.63","84","1.9","6","0.03","0.09"
"00:19:59","52.6","51.2","95","29.63","353","1.6","6","0.05","0.10"
"00:24:56","52.5","51.1","95","29.63","53","2.1","5.8","0.08","0.11"
"00:29:57","52.4","51.2","95.6","29.63","75","1.4","4","0.10","0.12"
"00:34:58","52.3","51.2","96","29.63","73","1.1","5","0.12","0.14"
"00:39:56","52.1","50.9","95.8","29.63","62","1.4","3.5","0.14","0.15"
"00:44:57","51.8","50.5","95.4","29.63","94","1.6","4","0.16","0.16"
"00:49:59","51.6","50.5","96","29.63","41","2.2","5","0.18","0.18"
"00:54:59","51.4","50.1","95.5","29.63","55","1.7","4","0.20","0.20"
"00:59:56","51.1","50","96","29.63","58","2.5","5","0.23","0.22"
"01:04:57","50.9","49.7","95.8","29.61","52","2.3","5","0.25","0.25"
"01:09:59","50.8","49.7","96","29.61","41","1.6","5","0.28","0.27"
"01:14:57","50.7","49.6","96","29.62","48","1.5","5","0.30","0.28"
"01:19:58","50.6","49.5","96","29.62","12","1.4","6","0.31","0.27"
"01:24:59","50.5","49.4","96","29.62","67","1.8","7","0.33","0.26"
"01:29:57","50.5","49.4","96","29.62","74","1.2","4","0.34","0.25"
"01:34:58","50.4","49.3","96","29.60","79","1.8","7","0.36","0.25"
"01:39:56","50.3","49.2","96","29.60","41","1.7","6.9","0.36","0.24"
"01:44:58","50.3","49.2","96","29.60","50","1.3","4","0.38","0.23"
"01:49:59","50.2","49.1","96","29.57","45","2.6","9.2","0.39","0.22"
"01:54:56","50.1","49","96","29.57","16","2.1","6","0.39","0.21"
"01:59:56","50","48.9","96","29.57","54","2.1","6","0.40","0.19"
"02:04:57","49.9","48.8","96","29.57","339","1.8","5","0.40","0.17"
"02:09:59","49.9","48.8","96","29.57","356","2.4","8.1","0.40","0.15"
"02:14:57","49.9","48.8","96","29.57","354","2.3","9.2","0.40","0.12"
"02:19:59","49.8","48.7","96","29.57","17","2.2","5","0.41","0.10"
"02:24:56","49.7","48.6","96","29.57","37","2.2","13","0.41","0.10"
"02:29:57","49.7","48.6","96","29.57","316","1.4","5","0.41","0.08"
"02:34:57","49.7","48.6","96","29.57","229","1.8","7","0.41","0.07"
"02:39:59","49.7","48.6","96","29.57","40","1.9","6.9","0.41","0.05"
"02:44:57","49.7","48.6","96","29.57","130","1.6","5","0.41","0.05"
"02:49:58","49.8","48.7","96","29.57","354","1.7","4","0.41","0.03"
"02:54:56","49.8","48.7","96","29.57","2","1.2","3.5","0.41","0.02"
"02:59:57","49.8","48.7","96","29.57","348","1.2","4","0.41","0.02"
"03:04:59","49.8","48.7","96","29.56","22","1.3","3.5","0.41","0.01"
"03:09:57","49.8","48.7","96","29.56","9","1.1","4","0.41","0.01"
"03:14:59","49.8","48.7","96","29.57","15","1.6","5","0.41","0.01"
"03:19:57","49.9","48.8","96","29.57","62","0.8","3.5","0.41","0.01"
"03:24:58","49.9","48.8","96","29.57","249","1","3.5","0.41","0.00"
"03:29:59","49.9","48.8","96","29.57","193","1.2","3.5","0.41","0.00"
"03:34:57","49.9","48.8","96","29.57","15","1","3.5","0.41","0.00"
"03:39:59","49.9","48.8","96","29.57","26","1.3","5","0.41","0.00"
"03:44:57","49.9","48.8","96","29.58","50","0.8","3","0.41","0.00"
"03:49:59","49.9","48.8","96","29.58","351","1.1","5","0.41","0.00"
"03:54:56","49.9","48.8","96","29.58","327","1.2","4.6","0.41","0.00"
"03:59:58","49.9","48.8","96","29.58","54","0.8","4","0.41","0.00"
"04:04:58","49.9","48.8","96","29.58","300","1.4","5","0.41","0.00"
"04:09:56","49.9","48.8","96","29.58","338","0.3","3.5","0.41","0.00"
"04:14:59","49.9","48.8","96","29.58","352","0","1.2","0.41","0.00"
"04:19:56","49.9","48.8","96","29.58","360","0","0","0.41","0.00"
"04:24:58","49.9","48.8","96","29.58","360","0.1","2.3","0.41","0.00"
"04:29:59","49.9","48.8","96","29.59","355","0","1.2","0.41","0.00"
"04:34:57","49.9","48.8","96","29.59","22","0","2.3","0.42","0.00"
"04:39:59","49.8","48.7","96","29.59","345","0","1.2","0.42","0.01"
"04:44:56","49.7","48.6","96","29.59","350","0","1.2","0.43","0.02"
"04:49:57","49.7","48.6","96","29.59","350","0","0","0.43","0.02"
"04:54:59","49.7","48.6","96","29.59","350","0.1","3.5","0.43","0.02"
"04:59:56","49.7","48.6","96","29.59","307","0.1","3.5","0.44","0.03"
"05:04:57","49.7","48.8","96.7","29.59","324","0.6","4","0.44","0.03"
"05:09:59","49.7","48.9","97","29.59","323","0.9","4","0.45","0.03"
"05:14:58","49.7","48.9","97","29.59","325","0.9","3.5","0.45","0.04"
"05:19:59","49.7","48.9","97","29.58","336","1.3","4","0.45","0.04"
"05:24:58","49.7","48.9","97","29.58","339","1.1","3.5","0.45","0.04"
"05:29:59","49.7","48.9","97","29.58","338","1.3","4","0.46","0.05"
"05:34:56","49.7","48.9","97","29.58","11","1.5","4","0.46","0.05"
"05:39:58","49.7","48.9","97","29.58","335","1","4","0.46","0.04"
"05:44:56","49.7","48.9","97","29.58","333","1.4","3.5","0.46","0.04"
"05:49:58","49.8","49","97","29.58","347","1.7","4","0.47","0.03"
"05:54:56","49.8","49","97","29.58","331","0.6","3","0.47","0.04"
"05:59:57","49.8","49","97","29.59","331","1.2","4","0.47","0.04"
"06:04:58","49.8","49","97","29.59","342","1.6","6","0.47","0.03"
"06:09:57","49.8","49","97","29.59","347","1","4.6","0.47","0.03"
"06:14:59","49.9","49.1","97","29.60","348","1.7","4","0.48","0.03"
"06:19:57","49.9","49.1","97","29.60","345","2","5","0.48","0.03"
"06:24:59","49.9","49.1","97","29.60","343","1.5","4","0.49","0.03"
"06:29:56","49.9","49.1","97","29.62","321","2.3","4","0.49","0.04"
"06:34:58","49.9","49.1","97","29.62","336","1.5","5","0.49","0.03"
"06:39:56","49.9","49.1","97","29.62","307","1.9","5","0.51","0.05"
"06:44:58","49.9","49.1","97","29.63","336","1.8","6","0.54","0.07"
"06:49:59","49.9","49.1","97","29.63","357","2","5","0.56","0.10"
"06:54:56","49.9","49.1","97","29.63","339","1.6","5","0.57","0.10"
"06:59:57","49.9","49.1","97","29.64","336","2.4","6","0.60","0.13"
"07:04:54","49.9","49.1","97","29.64","322","2.4","6","0.62","0.15"
"07:09:56","49.9","49.1","97","29.64","329","2.3","5.8","0.64","0.16"
"07:14:57","50","49.2","97","29.64","342","2.2","5","0.65","0.17"
"07:19:59","50","49.2","97","29.64","343","2.7","5","0.66","0.18"
"07:24:56","50","49.2","97","29.64","339","2.8","9.2","0.68","0.19"
"07:29:57","50","49.2","97","29.64","337","2.2","6","0.69","0.20"
"07:34:58","50","49.2","97","29.64","328","3.5","9.2","0.70","0.21"
"07:39:56","50.1","49.3","97","29.64","333","1.8","7","0.72","0.21"
"07:44:57","50.1","49.3","97","29.65","350","3.1","7","0.74","0.21"
"07:49:58","50.1","49.3","97","29.65","342","2.1","6","0.75","0.20"
"07:54:59","50.2","49.4","97","29.65","345","2.4","9","0.76","0.19"
"07:59:57","50.2","49.4","97","29.65","343","3.3","11","0.77","0.19"
"08:04:54","50.2","49.4","97","29.65","342","2.5","11.5","0.79","0.17"
"08:09:56","50.3","49.5","97","29.65","337","2.4","7","0.79","0.17"
"08:14:58","50.4","49.6","97","29.65","347","3.7","10","0.80","0.16"
"08:19:56","50.5","49.8","97.2","29.65","2","3.1","10.4","0.81","0.16"
"08:24:56","50.7","49.9","97","29.65","344","1.8","6","0.81","0.15"
"08:29:57","50.8","50","97","29.65","334","3.5","9.2","0.82","0.13"
"08:34:58","50.9","50.1","97","29.65","352","2.7","5.8","0.82","0.13"
"08:39:56","51","50.2","97","29.65","345","3.6","11.5","0.82","0.12"
"08:44:57","51.2","50.4","97","29.66","6","2.9","10.4","0.82","0.10"
"08:49:58","51.4","50.6","97","29.66","344","2.2","5","0.82","0.08"
"08:54:59","51.5","50.7","97","29.66","333","2.4","9.2","0.82","0.07"
"08:59:56","51.6","50.9","97.2","29.66","329","2.9","9.2","0.82","0.06"
"09:04:57","51.7","50.9","97","29.66","15","3","9.2","0.82","0.05"
"09:09:59","51.7","50.9","97","29.66","332","3.1","9","0.82","0.03"
"09:14:57","51.7","50.9","97","29.66","329","2.9","9.2","0.82","0.03"
"09:19:58","51.7","50.9","97","29.66","315","2.2","5","0.82","0.02"
"09:24:59","51.7","50.9","97","29.66","337","2.8","11.5","0.82","0.01"
"09:29:56","51.6","50.8","97","29.66","337","4.8","12","0.82","0.01"
"09:34:53","51.6","50.8","97","29.66","320","3.2","10.4","0.82","0.00"
"09:39:59","51.6","50.8","97","29.66","0","3","12","0.82","0.00"
"09:44:56","51.6","50.8","97","29.67","343","1.9","5.8","0.82","0.00"
"09:49:57","51.7","50.9","97","29.67","11","2.2","6","0.82","0.00"
"09:54:59","51.7","50.9","97","29.67","339","2.7","7","0.82","0.00"
"09:55:16","51.7","50.9","97","29.67","25","2.7","4.6","0.82","0.00"
"10:09:56","51.9","51.1","97","29.67","313","2","5","0.82","0.00"
"10:14:58","52","51.2","97","29.68","341","2","5","0.83","0.00"
"10:19:57","52.1","51.3","97","29.68","339","1.4","6","0.83","0.01"
"10:24:56","52.3","51.5","97","29.68","346","2.6","6","0.83","0.01"
"10:29:58","52.3","51.5","97","29.68","334","2.4","9.2","0.83","0.01"
"10:34:57","52.4","51.6","97","29.68","331","2.1","6","0.84","0.02"
"10:39:57","52.5","51.7","97","29.68","343","2.2","6","0.84","0.02"
"10:44:56","52.6","51.8","97","29.69","348","2","5","0.85","0.03"
"10:49:58","52.8","52","97","29.69","341","2.7","6","0.85","0.03"
"10:54:57","52.8","52","97","29.69","348","2","4.6","0.85","0.03"
"10:59:59","52.9","52.1","97","29.69","333","2.2","6.9","0.86","0.04"
"11:04:57","53","52.2","97","29.69","11","1.4","3.5","0.86","0.04"
"11:09:59","52.9","52.1","97","29.69","338","2.2","8.1","0.87","0.04"
"11:14:59","53","52.2","97","29.70","28","1.7","6","0.87","0.05"
"11:19:58","53.2","52.4","97","29.70","346","1.5","5","0.87","0.04"
"11:24:57","53.3","52.5","97","29.70","353","2","7","0.87","0.04"
"11:29:56","53.2","52.2","96.5","29.70","269","1.6","5","0.87","0.04"
"11:34:59","52.9","51.8","96","29.70","338","3","8.1","0.87","0.04"
"11:39:58","52.8","51.7","96","29.70","357","2.8","13","0.87","0.03"
"11:44:57","52.8","51.7","96","29.71","33","1.6","12.7","0.87","0.03"
"11:49:56","52.9","51.8","96","29.71","7","2","5.8","0.88","0.03"
"11:54:55","52.8","51.7","96","29.71","69","2.1","5.8","0.88","0.03"
"11:59:58","52.6","51.5","96","29.71","359","2.5","6","0.88","0.03"
"12:04:59","52.3","51.1","95.8","29.71","357","2.5","11","0.88","0.02"
"12:09:57","52","50.7","95.2","29.71","61","2.7","11.5","0.88","0.02"
"12:14:57","51.9","50.7","95.5","29.71","32","2.3","5.8","0.88","0.01"
"12:19:59","51.8","50.6","95.6","29.71","345","2.3","6","0.88","0.01"
"12:24:59","51.8","50.7","96","29.71","347","1.7","6","0.88","0.01"
"12:29:57","51.7","50.6","96","29.72","29","1.7","5","0.88","0.01"
"12:34:56","51.6","50.5","96","29.72","13","2.3","5.8","0.89","0.02"
"12:39:56","51.6","50.5","96","29.72","20","3.1","10.4","0.89","0.02"
"12:44:59","51.5","50.4","96","29.72","322","1.5","5","0.89","0.02"
"12:49:58","51.5","50.4","96","29.72","297","1.7","5","0.89","0.02"
"12:54:57","51.4","50.3","96","29.72","4","2.1","7","0.89","0.01"
"12:59:56","51.2","50.1","96","29.73","358","2","7","0.89","0.01"
"13:04:58","51.1","50","96","29.73","353","1.8","6","0.89","0.01"
"13:09:56","51.1","50","96","29.73","48","1.8","4","0.89","0.01"
"13:14:56","51.1","50","96","29.73","68","2.2","7","0.89","0.01"
"13:19:59","51.1","50","96","29.73","41","1.8","6.9","0.89","0.01"
"13:24:58","51.1","50","96","29.73","33","1.7","6","0.90","0.02"
"13:29:56","51.2","50.1","96","29.74","345","1.7","4","0.90","0.02"
"13:34:59","51.2","50.1","96","29.74","305","3.5","11","0.90","0.02"
"13:39:58","51","49.6","95","29.74","71","2.6","11.5","0.90","0.01"
"13:44:58","51","49.8","95.8","29.74","66","2.3","7","0.90","0.01"
"13:49:56","50.9","49.5","95","29.74","39","2.5","6","0.90","0.01"
"13:54:59","50.9","49.7","95.7","29.74","54","1.8","6","0.90","0.01"
"13:59:58","50.9","49.8","96","29.74","25","2.4","6","0.91","0.02"
"14:04:56","50.8","49.4","95","29.74","16","2.8","7","0.91","0.02"
"14:09:57","50.7","49.3","95","29.74","333","2.3","9.2","0.91","0.02"
"14:14:58","50.7","49.3","95.2","29.75","333","2.4","9.2","0.91","0.02"
"14:19:56","50.6","49.3","95.4","29.75","56","2.7","10.4","0.91","0.02"
"14:24:59","50.6","49.3","95.6","29.75","327","1.8","9.2","0.91","0.02"
"14:29:59","50.6","49.5","96","29.75","314","2.1","6","0.91","0.01"
"14:34:57","50.6","49.5","96","29.75","72","1.9","5.8","0.91","0.01"
"14:39:57","50.6","49.5","96","29.75","328","2","7","0.91","0.01"
"14:44:57","50.6","49.4","95.6","29.76","307","3.2","11.5","0.91","0.01"
"14:49:57","50.6","49.2","95","29.76","301","1.7","8.1","0.91","0.01"
"14:54:59","50.6","49.3","95.4","29.76","9","2.3","7","0.92","0.02"
"14:59:58","50.7","49.6","96","29.77","10","1.5","9.2","0.92","0.02"
"15:04:56","50.7","49.6","96","29.77","26","1.7","4","0.93","0.02"
"15:09:58","50.7","49.6","96","29.77","69","1.9","4","0.93","0.02"
"15:14:58","50.7","49.6","96","29.77","93","1.2","4","0.93","0.02"
"15:19:57","50.6","49.5","96","29.77","334","1.3","4","0.94","0.03"
"15:24:59","50.6","49.5","96","29.77","36","1.4","4","0.94","0.03"
"15:29:58","50.6","49.5","96","29.77","338","2.2","10.4","0.95","0.04"
"15:34:57","50.5","49.4","96","29.77","347","1.6","5","0.95","0.04"
"15:39:57","50.4","49.3","96","29.77","10","2.2","7","0.95","0.04"
"15:44:56","50.3","49.2","96","29.78","0","3.1","14","0.96","0.05"
"15:49:59","50.2","49.1","96","29.78","337","1.9","6","0.96","0.05"
"15:54:58","50.1","49","96","29.78","33","2.6","11.5","0.96","0.05"
"15:59:57","50.1","49","96","29.78","1","3.1","10.4","0.96","0.04"
"16:04:59","50","48.9","96","29.78","31","1.8","5","0.97","0.05"
"16:09:57","49.9","48.7","95.7","29.78","75","1.6","5","0.97","0.04"
"16:14:57","49.9","48.8","96","29.79","354","2","9","0.97","0.04"
"16:19:56","49.9","48.8","96","29.79","51","1.8","5","0.97","0.04"
"16:24:56","49.8","48.7","96","29.79","354","2.3","8.1","0.97","0.03"
"16:29:59","49.8","48.7","96","29.80","9","1.7","9.2","0.98","0.04"
"16:34:58","49.8","48.7","96","29.80","19","2","6.9","0.98","0.03"
"16:39:58","49.8","48.7","96","29.80","304","1.5","6","0.98","0.03"
"16:44:57","49.8","48.7","96","29.80","319","1.6","5","0.99","0.04"
"16:49:56","49.7","48.6","96","29.80","323","1.9","11","0.99","0.03"
"16:54:59","49.6","48.5","96","29.80","38","1.6","6.9","1.00","0.04"
"16:59:58","49.6","48.5","96","29.81","17","2","7","1.01","0.04"
"17:04:59","49.6","48.5","96","29.81","348","1.9","9.2","1.01","0.05"
"17:09:57","49.5","48.4","96","29.81","18","1.3","4","1.01","0.04"
"17:14:58","49.6","48.5","96","29.82","338","2.8","11","1.02","0.05"
"17:19:56","49.4","48.3","96","29.82","333","3.2","11.5","1.02","0.05"
"17:24:59","49.2","48.1","96","29.82","331","3.9","10.4","1.02","0.05"
"17:29:58","49.1","48","96","29.83","344","3.2","9.2","1.03","0.05"
"17:34:58","49","47.9","96","29.83","348","1.7","6.9","1.03","0.05"
"17:39:58","49","47.9","96","29.83","342","3.2","13","1.03","0.05"
"17:44:57","49","47.9","96","29.83","336","2.9","10","1.03","0.05"
"17:49:56","48.9","47.8","96","29.83","333","1.8","6","1.03","0.04"
"17:54:59","48.9","47.8","96","29.83","298","1.9","8","1.03","0.04"
"17:59:57","48.8","47.7","96","29.85","340","3.8","13","1.03","0.03"
"18:04:59","48.7","47.6","96","29.85","349","3.8","15","1.04","0.03"
"18:09:57","48.6","47.5","96","29.85","346","3","10.4","1.04","0.03"
"18:14:57","48.5","47.4","96","29.85","348","2.4","10.4","1.04","0.03"
"18:19:56","48.3","47.2","96","29.85","328","3.4","13","1.04","0.02"
"18:24:59","48.1","47","96","29.85","9","2.4","9","1.04","0.02"
"18:29:58","48","46.9","96","29.86","0","3.6","11.5","1.04","0.02"
"18:34:57","47.9","46.8","96","29.86","358","2.3","7","1.04","0.01"
"18:39:56","47.8","46.7","96","29.86","346","3.9","10.4","1.05","0.02"
"18:44:59","47.7","46.6","96","29.87","9","3.2","12","1.05","0.02"
"18:49:59","47.6","46.5","96","29.87","353","3.2","11.5","1.05","0.02"
"18:54:58","47.5","46.4","96","29.87","355","3.5","10.4","1.05","0.02"
"18:59:57","47.4","46.3","96","29.88","343","2.9","13","1.05","0.02"
"19:04:58","47.4","46.3","96","29.88","342","3.5","13","1.05","0.02"
"19:09:56","47.4","46.3","96","29.88","347","2.6","9.2","1.05","0.01"
"19:14:57","47.4","46.3","96","29.88","334","3.7","11.5","1.05","0.01"
"19:19:56","47.2","46.1","96","29.88","346","3.4","9","1.05","0.01"
"19:24:59","47","45.9","96","29.88","344","5.7","15","1.05","0.01"
"19:29:57","46.7","45.6","96","29.89","352","4.1","15","1.05","0.01"
"19:34:56","46.5","45.4","96","29.89","353","3.2","11.5","1.06","0.02"
"19:39:56","46.4","45.3","96","29.89","334","4.2","16","1.06","0.02"
"19:44:56","46.2","45.1","96","29.89","0","2.8","16.1","1.06","0.01"
"19:49:59","46.1","45","96","29.89","354","3","10.4","1.06","0.01"
"19:54:58","46.1","45","96","29.89","38","3.2","11.5","1.07","0.02"
"19:59:58","46","44.9","96","29.90","335","3","12","1.07","0.02"
"20:04:55","46","44.9","96","29.90","347","2.7","9.2","1.07","0.02"
"20:09:58","46","44.9","96","29.90","337","3.3","11.5","1.07","0.02"
"20:14:58","46","44.9","96","29.90","345","3.5","11.5","1.07","0.02"
"20:19:58","46.1","45","96","29.90","334","2.9","8.1","1.07","0.02"
"20:24:57","46","44.9","96","29.90","339","3.1","11.5","1.07","0.02"
"20:29:57","45.9","44.8","96","29.91","332","3.9","10","1.07","0.02"
"20:34:57","45.9","44.8","96","29.91","355","4.1","16.1","1.07","0.02"
"20:39:58","45.9","44.8","96","29.91","348","3","11","1.07","0.01"
"20:44:57","45.9","44.8","96","29.91","342","2.9","11.5","1.07","0.01"
"20:49:56","45.9","44.8","96","29.91","353","3","11.5","1.07","0.01"
"20:54:59","45.8","44.7","96","29.91","357","3.2","12","1.07","0.01"
"20:59:59","45.8","44.7","96","29.92","8","3.7","13","1.07","0.00"
"21:04:53","45.7","44.6","96","29.92","184","3.7","10.4","1.07","0.00"
"21:09:59","45.6","44.5","96","29.92","10","3.9","15","1.08","0.01"
"21:14:59","45.6","44.5","96","29.92","346","2.7","11.5","1.08","0.01"
"21:19:58","45.5","44.4","96","29.92","352","4.1","11.5","1.08","0.01"
"21:24:57","45.5","44.4","96","29.92","353","2.5","9","1.08","0.01"
"21:29:56","45.4","44.3","96","29.93","342","2.9","7","1.08","0.01"
"21:34:56","45.4","44.3","96","29.93","336","3.9","12","1.08","0.01"
"21:39:56","45.4","44.3","96","29.93","343","3","12","1.08","0.01"
"21:44:59","45.4","44.3","96","29.94","352","4.9","13","1.08","0.01"
"21:49:58","45.4","44.3","96","29.94","352","3.8","11.5","1.08","0.01"
"21:54:58","45.3","44.2","96","29.94","357","3.3","11.5","1.08","0.01"
"21:59:57","45.3","44.2","96","29.95","334","3.1","10.4","1.08","0.01"
"22:04:59","45.3","44.2","96","29.95","331","3.1","11.5","1.08","0.01"
"22:09:57","45.3","44.2","96","29.95","335","3.5","11.5","1.08","0.01"
"22:14:56","45.3","44.2","96","29.96","3","2.4","10.4","1.08","0.00"
"22:19:56","45.2","44.1","96","29.96","2","2.5","6","1.08","0.00"
"22:24:59","45.2","44.1","96","29.96","35","3.2","7","1.08","0.00"
"22:29:59","45.2","44.1","96","29.96","358","2.2","7","1.08","0.00"
"22:34:58","45.2","44.1","96","29.96","349","2.6","6.9","1.08","0.00"
"22:39:58","45.1","44","96","29.96","346","1.8","5.8","1.08","0.00"
"22:44:58","45.1","44","96","29.96","350","2.5","10","1.08","0.00"
"22:49:57","45.1","44","96","29.96","339","3.5","10.4","1.08","0.00"
"22:54:57","45.1","44","96","29.96","1","3.2","12","1.08","0.00"
"22:59:56","45.1","44","96","29.97","333","2.3","6","1.08","0.00"
"23:04:54","45.1","44","96","29.97","315","3","7","1.08","0.00"
"23:09:56","45","43.9","96","29.97","353","2.8","11.5","1.08","0.00"
"23:14:56","45","43.9","96","29.97","350","3.3","7","1.08","0.00"
"23:19:56","45","43.9","96","29.97","345","1.7","9","1.08","0.00"
"23:24:57","44.9","43.8","96","29.97","328","3.6","14","1.08","0.00"
"23:29:56","44.9","43.8","96","29.98","336","3.1","11.5","1.09","0.01"
"23:34:59","44.9","43.8","96","29.98","346","2.6","11.5","1.09","0.01"
"23:39:56","44.9","43.8","96","29.98","322","1.8","7","1.09","0.01"
"23:44:56","44.8","43.7","96","29.98","341","3.1","9.2","1.09","0.01"
"23:49:56","44.8","43.7","96","29.98","357","2","6","1.09","0.01"
"23:54:59","44.8","43.7","96","29.98","339","3.4","14","1.09","0.01"
"23:59:58","44.7","43.6","96","29.98","351","2.7","10.4","1.09","0.01"
